Regional Weather Roundup
Issued by NWS

Home | Current Version | Previous Version | Graphics & Text | Print | Product List | Glossary On
Versions: 1 2 3 4 5 6 7 8 9 10 11 12 13 14 15 16 17 18 19 20 21 22 23 24 25 26 27 28 29 30 31 32 33 34 35 36 37 38 39 40 41 42 43 44 45 46 47 48 49 50
812
ASUS45 KPSR 261810
RWRAZ

ARIZONA HOURLY REGIONAL WEATHER ROUNDUP
NATIONAL WEATHER SERVICE PHOENIX AZ
1100 AM MST WED APR 26 2017

NOTE: FAIR INDICATES FEW OR NO CLOUDS BELOW 12,000 FEET WITH NO
SIGNIFICANT WEATHER AND/OR OBSTRUCTIONS TO VISIBILITY.

AZZ001>003-036-261900-
NORTHWEST ARIZONA

CITY           SKY/WX    TMP DP  RH WIND       PRES   REMARKS
BULLHEAD CITY  SUNNY     79  16   9 SW5       29.84F
KINGMAN        SUNNY     71  23  16 VRB6      29.94F
6HR MIN TEMP:  39; 6HR MAX TEMP:  72;

$$

AZZ004>008-015-016-018-261900-
NORTH CENTRAL ARIZONA

CITY           SKY/WX    TMP DP  RH WIND       PRES   REMARKS
GRAND CANYON   MOSUNNY   54  19  25 MISG      30.01S
6HR MIN TEMP:  19; 6HR MAX TEMP:  55;

WILLIAMS       SUNNY     55  18  22 NW13      30.03S
PRESCOTT       SUNNY     63  17  17 N13       30.00S
6HR MIN TEMP:  39; 6HR MAX TEMP:  63;

FLAGSTAFF      SUNNY     55  10  16 W10G20    30.01S
6HR MIN TEMP:  24; 6HR MAX TEMP:  57;

PAYSON         SUNNY     64  16  15 VRB7      30.00S
PAGE           MOSUNNY   60  20  21 VRB6      29.92F
6HR MIN TEMP:  43; 6HR MAX TEMP:  62;

$$

AZZ009>014-017-261900-
NORTHEAST ARIZONA

CITY           SKY/WX    TMP DP  RH WIND       PRES   REMARKS
WINSLOW        SUNNY     61  15  16 VRB5      29.96F
6HR MIN TEMP:  29; 6HR MAX TEMP:  63;

SAINT JOHNS    SUNNY     57  19  22 VRB5      29.97F
6HR MIN TEMP:  31; 6HR MAX TEMP:  58;

WINDOW ROCK    SUNNY     56  16  20 W10G16    29.97F
6HR MIN TEMP:  24; 6HR MAX TEMP:  56;

SHOW LOW       MOSUNNY   54  12  19 W8        30.01S
$$

AZZ540-542>544-546-548-261900-
GREATER PHOENIX AREA

CITY           SKY/WX    TMP DP  RH WIND       PRES   REMARKS
PHOENIX        PTSUNNY   80  21  11 S3        29.84S
6HR MIN TEMP:  64; 6HR MAX TEMP:  80;

BUCKEYE        SUNNY     77  27  15 S5        29.86S
GLENDALE       PTSUNNY   81  19  10 CALM      29.86S
LUKE AFB       SUNNY     80  20  10 NW5       29.84S
6HR MIN TEMP:  59; 6HR MAX TEMP:  80;

DEER VALLEY    SUNNY     80   9   6 NW8       29.84F
6HR MIN TEMP:  60; 6HR MAX TEMP:  80;

SCOTTSDALE     SUNNY     79  19  10 CALM      29.87S
6HR MIN TEMP:  62; 6HR MAX TEMP:  79;

MESA-FALCON    PTSUNNY  N/A N/A N/A W6        29.86S
MESA-GATEWAY   MOSUNNY   75  21  13 CALM      29.87
CHANDLER       SUNNY     77  21  12 VRB6      29.86S
$$

AZZ539-553-261900-
SOUTHWEST MARICOPA COUNTY AND PINAL COUNTY

CITY           SKY/WX    TMP DP  RH WIND       PRES   REMARKS
CASA GRANDE    SUNNY     78  19  11 N6        29.88S
6HR MIN TEMP:  61; 6HR MAX TEMP:  78;

GILA BEND      SUNNY     80  21  11 CALM      29.84F
6HR MIN TEMP:  57; 6HR MAX TEMP:  81;

$$

AZZ503-504-507>509-261900-
SOUTHEAST ARIZONA

CITY           SKY/WX    TMP DP  RH WIND       PRES   REMARKS
TUCSON         SUNNY     76  25  15 W5        29.93S
6HR MIN TEMP:  56; 6HR MAX TEMP:  76;

DAVIS-MONTHAN  SUNNY     75  18  11 NW14G22   29.92R
6HR MIN TEMP:  53; 6HR MAX TEMP:  75;

NOGALES        SUNNY     74  20  13 W9        29.96R
6HR MIN TEMP:  47; 6HR MAX TEMP:  74;

SIERRA VISTA   SUNNY     70  15  12 NW7G20    30.00R
6HR MIN TEMP:  52; 6HR MAX TEMP:  71;

DOUGLAS        SUNNY     72  20  14 NW12G18   29.96S
6HR MIN TEMP:  47; 6HR MAX TEMP:  73;

SAFFORD        SUNNY     73  15  11 W8        29.88F
6HR MIN TEMP:  46; 6HR MAX TEMP:  73;

$$

AZZ532-261900-
SOUTHWEST ARIZONA

CITY           SKY/WX    TMP DP  RH WIND       PRES   REMARKS
YUMA           PTSUNNY   83  32  16 CALM      29.84S
6HR MIN TEMP:  61; 6HR MAX TEMP:  84;

$$

CAZ041-043-047-048-061-525>527-560>570-261900-
SOUTHERN CALIFORNIA

CITY           SKY/WX    TMP DP  RH WIND       PRES   REMARKS
DOWNTOWN L.A.  SUNNY     75  52  44 CALM      29.89S
6HR MIN TEMP:  61; 6HR MAX TEMP:  76;

L.A. AIRPORT   PTSUNNY   67  55  65 W13       29.92R
6HR MIN TEMP:  57; 6HR MAX TEMP:  70;

SAN DIEGO      MOSUNNY   68  53  58 SW9       29.95R
6HR MIN TEMP:  59; 6HR MAX TEMP:  68;

BURBANK        MOSUNNY   78  39  24 W10G18    29.90R
6HR MIN TEMP:  58; 6HR MAX TEMP:  78;

ONTARIO        PTSUNNY   70  43  37 CALM      29.91S
6HR MIN TEMP:  54; 6HR MAX TEMP:  71;

RIVERSIDE      PTSUNNY   70  46  42 CALM      29.91F
6HR MIN TEMP:  53; 6HR MAX TEMP:  70;

PALM SPRINGS   PTSUNNY   86  35  16 VRB3      29.85R
6HR MIN TEMP:  62; 6HR MAX TEMP:  86;

EL CENTRO NAS  MOSUNNY   82  40  22 VRB3      29.84F
6HR MIN TEMP:  58; 6HR MAX TEMP:  82;

IMPERIAL       SUNNY     81  46  29 CALM      29.82F
6HR MIN TEMP:  58; 6HR MAX TEMP:  81;

BLYTHE         SUNNY     82  31  15 VRB3      29.85R
6HR MIN TEMP:  65; 6HR MAX TEMP:  83;

NEEDLES        SUNNY     81  17   9 CALM      29.86S
6HR MIN TEMP:  62; 6HR MAX TEMP:  81;

$$

NVZ020-UTZ003-261900-
SOUTHERN NEVADA-UTAH

CITY           SKY/WX    TMP DP  RH WIND       PRES   REMARKS
LAS VEGAS      PTSUNNY   76  22  13 VRB6      29.87F
6HR MIN TEMP:  59; 6HR MAX TEMP:  76;

SALT LAKE CITY PTSUNNY   54  36  50 S10       29.87F
6HR MIN TEMP:  43; 6HR MAX TEMP:  54;

$$

NMZ009-TXZ055-261900-
NEW MEXICO-WEST TEXAS

CITY           SKY/WX    TMP DP  RH WIND       PRES   REMARKS
ALBUQUERQUE    MOSUNNY   55  31  39 S6        29.93F
6HR MIN TEMP:  41; 6HR MAX TEMP:  55;

EL PASO        FAIR      71  13  10 W12G17    29.91R
6HR MIN TEMP:  53; 6HR MAX TEMP:  71;

$$


........................KEY........................
SKY/WX - SKY CONDITION/WEATHER
TMP    - TEMPERATURE IN FAHRENHEIT
DP     - DEW POINT IN FAHRENHEIT
RH     - RELATIVE HUMIDITY IN PERCENT
WIND   - DIRECTION AND SPEED IN MILES PER HOUR (MPH)
VRB    - VARIABLE WIND DIRECTION
PRES   - MEAN SEA LEVEL PRESSURE IN INCHES OF MERCURY
         F - FALLING PRESSURE   R - RISING PRESSURE
         S - STEADY PRESSURE
VSB    - VISIBILITY IN MILES
HX     - HEAT INDEX IN FAHRENHEIT
WCI    - WIND CHILL INDEX IN FAHRENHEIT
TC     - TEMPERATURE IN CELSIUS WHICH IS ALSO KNOWN AS
         TEMPERATURE IN CENTIGRADE
AFB    - AIR FORCE BASE
         LUKE AFB IS LUKE AIR FORCE BASE
         DAVIS-MONTHAN IS DAVIS-MONTHAN AIR FORCE BASE
NAS    - NAVAL AIR STATION
         EL CENTRO NAS IS EL CENTRO NAVAL AIR STATION
N/A    - NOT AVAILABLE





USA.gov is the U.S. government's official web portal to all federal, state and local government web resources and services.